sat.trackr.live / text

‹ back to catalog

YAOGAN-40 02A

NORAD 63918 · 2025-096A

PAYLOAD ACTIVE UNKNOWN

§ Identity

Operator
Country
PRC
Launch date
2025-05-11
Launch site
TAISC
Launch vehicle
Mass (kg)
RCS (m²)

External: N2YO · Heavens-Above · Gunter

§ Orbital elements

Epoch: 2026-05-25T04:28:11.530848Z

Period
101.95 min
Inclination
85.9969°
Eccentricity
0.0002455
Mean motion
14.12442927 rev/d
Perigee alt
849.2 km
Apogee alt
852.8 km
Semi-major
7,229.2 km
B*
3.2834e-5
RAAN
198.2714°
Arg perigee
105.2084°
Mean anomaly
254.9371°
Rev number
5,332

§ Raw data

YAOGAN-40 02A1 63918U 25096A   26145.18624457  .00000079  00000+0  32834-4 0  99932 63918  85.9969 198.2714 0002455 105.2084 254.9371 14.12442927 53323

JSON: /api/v1/satellites/63918 · /tle

For live sub-satellite position, see the globe view (requires WebGL).

§ Visibility from observer

Set your observer location to see the next 7 days of passes ≥ 10°. The values pass through the URL so the page stays shareable.

No JS? Fill the form by hand. The geolocation button needs JavaScript.